Weather Roundup
Issued by NWS Chicago, IL

Home | Current Version | Previous Version | Text Only | Print | Product List | Glossary On
Versions: 1 2 3 4 5 6 7 8 9 10 11 12 13 14 15 16 17 18 19 20 21 22 23 24 25 26 27 28 29 30 31 32 33 34 35 36 37 38 39 40 41 42 43 44 45 46 47 48 49 50
000
NZUS59 KLOT 040008
HRRLOT

CHICAGO AREA WEATHER ROUNDUP
NATIONAL WEATHER SERVICE CHICAGO/ROMEOVILLE IL
700 PM CDT TUE MAY 03 2016

NOTE: "FAIR" INDICATES FEW OR NO CLOUDS BELOW 12,000 FEET WITH NO
SIGNIFICANT WEATHER AND/OR OBSTRUCTIONS TO VISIBILITY.

* THESE STATIONS ARE NOT UNDER NWS QUALITY CONTROL. THEY ALSO MAY NOT
  REPORT WEATHER SUCH AS PRECIPITATION OR FOG.

ILZ005-006-012>014-019>023-040100-
NORTHEAST ILLINOIS

CITY           SKY/WX    TMP DP  RH WIND       PRES   REMARKS
OHARE          CLOUDY    63  38  39 W12G22    29.77F
6HR MIN TEMP:  63; 6HR MAX TEMP:  67;

MIDWAY         CLOUDY    65  37  35 W16       29.78F
6HR MIN TEMP:  65; 6HR MAX TEMP:  68;

AURORA         MOCLDY    63  41  44 W14       29.79F
6HR MIN TEMP:  63; 6HR MAX TEMP:  68;

LANSING*       CLOUDY    63  38  39 W9        29.80F
JOLIET*        CLOUDY    66  39  37 W7G16     29.80F
WAUKEGAN       CLOUDY    64  39  39 SW8G17    29.74F
6HR MIN TEMP:  63; 6HR MAX TEMP:  68;

DUPAGE AIRPORT MOCLDY    63  38  39 W13G21    29.78F
6HR MIN TEMP:  63; 6HR MAX TEMP:  67;

WHEELING       MOCLDY    64  37  36 W15       29.77F
6HR MIN TEMP:  63; 6HR MAX TEMP:  67;

KANKAKEE*      MOCLDY    63  38  40 W8        29.82F
MORRIS*        MOCLDY    64  39  41 W10       29.79F
LEWIS AIRPORT* MOCLDY    63  38  40 W13       29.79F
$$

WIZ051-052-058>065-066-070>072-040100-
SOUTHEAST WISCONSIN

CITY           SKY/WX    TMP DP  RH WIND       PRES   REMARKS
MILWAUKEE      CLOUDY    65  34  31 W13       29.72F
6HR MIN TEMP:  64; 6HR MAX TEMP:  69;

KENOSHA*       CLOUDY    63  39  41 W9G21     29.74F
RACINE*        CLOUDY    65  36  34 W8        29.74F
BURLINGTON     CLOUDY    62  36  37 W8        29.74S
WAUKESHA       PTCLDY    63  36  36 SW14G21   29.73F
WEST BEND      CLOUDY    63  34  34 SW8       29.69F
$$

INZ001>003-010>013-019-020-040100-
NORTHWEST INDIANA

CITY           SKY/WX    TMP DP  RH WIND       PRES   REMARKS
GARY*          MOCLDY    66  45  45 SW9       29.79F
MICHIGAN CITY* NOT AVBL
RENSSELAER*    NOT AVBL
VALPARAISO     CLOUDY    62  39  42 SW6       29.81F
$$

LMZ740>746-040100-
SOUTHERN LAKE MICHIGAN

STATION/POSITION TIME  SKY/WX   TEMP WIND        PRES    VSBY
                                AIR  DIR/SP/G
                 (UTC)          (F)  (DEG/KT/KT) (MB)    (MI)
HARRISON CRIB    2300            65  260/ 13/ 14   N/A
BURNHAM HARBOR   0000            64  250/  7/ 14   N/A
CALUMET HARBOR   2300            65              1008.5F
BURNS HARBOR     2300            60  280/  8/ 10 1009.8F
MICHIGAN CITY    2300            62  220/  8/  8   N/A
$$

ABBREVIATIONS USED IN REMARKS
   TC - TEMPERATURE IN CELSIUS
  WCI - WIND CHILL INDEX
   HX - HEAT INDEX
  VSB - VISIBILITY
$$




USA.gov is the U.S. government's official web portal to all federal, state and local government web resources and services.